Content
SEND FEEDBACK

Daily
Averages
Monthly
Summary
Canada

INGONISH BEACH, NOVA SCOTIA


Home > North America > Canada > Nova Scotia
Elevation: 16 feet     Latitude: 46 39N     Longitude: 060 24W

WEATHER
 
SELECT A DAY
Number of Records: 130,108;   Date Range: 12/10/00 - 10/20/14
 
SHARE

PRINT THIS DATA

[ ← Previous Day ]
WEATHER ALMANAC - JULY 13, 2013
[ Next Day → ]
[ °C ]   °F
Weather ElementAverageHighLow
Temperature63.5 °F71.6 °F (6:00 pm)52.3 °F (6:00 am)
Dewpoint49.7 °F55 °F (8:00 pm)42.4 °F (11:00 am)
Humidity62.5 %92 % (6:00 am)32 % (9:00 am)
Barometer30.25 in30.28 in (12:00 pm)30.22 in (1:00 am)
Wind Speed2.3 mph4.6 mph (12:00 pm)
Weather ElementAverage
Wind DirectionSE (139.6 °)

Weather ElementTotal
Precipitation---
Heating Degree Days3.1 (Base 65)
Growing Degree Days12 (Base 50)
Averaged from 26 records on July 13, 2013
WEATHER CONDITIONS BREAKOUT
WIND DIRECTION BREAKOUT
WEATHER BY HOUR - JULY 13, 2013
[ °C ]   °F
Local TimeTemperatureDewpointHumidityBarometerVisibilityWind DirectionWind SpeedGust SpeedPrecipitationEventsConditions
1:00 AM56.3 °F52.5 °F87 %30.22 inSSW (210°)1.2 mph
2:00 AM55.2 °F51.4 °F87 %30.22 inCalm
3:00 AM55.0 °F51.0 °F81 %30.23 inNW (310°)2.3 mph
3:00 AM55.0 °F50.7 °F85 %30.23 inNW (310°)2.3 mph
5:00 AM52.5 °F50.0 °F91 %30.24 inWSW (250°)1.2 mph
6:00 AM52.3 °F50.2 °F92 %30.26 inWSW (240°)1.2 mph
7:00 AM55.2 °F52.0 °F89 %30.27 inCalm
8:00 AM63.0 °F52.9 °F70 %30.26 inEast (80°)1.2 mph
9:00 AM69.0 °F46.0 °F32 %30.26 inEast (100°)1.2 mph
9:00 AM68.9 °F45.9 °F44 %30.26 inEast (100°)1.2 mph
10:00 AM70.5 °F44.6 °F39 %30.26 inEast (100°)3.5 mph
11:00 AM69.8 °F42.4 °F37 %30.27 inEast (90°)3.5 mph
12:00 PM69.6 °F45.3 °F42 %30.28 inEast (90°)4.6 mph
1:00 PM69.4 °F47.5 °F45 %30.27 inEast (80°)3.5 mph
2:00 PM69.4 °F48.2 °F47 %30.26 inEast (80°)4.6 mph
3:00 PM70.0 °F49.0 °F36 %30.26 inEast (80°)3.5 mph
3:00 PM70.2 °F49.1 °F47 %30.26 inEast (80°)3.5 mph
4:00 PM70.2 °F51.6 °F52 %30.25 inENE (70°)3.5 mph
5:00 PM70.5 °F52.7 °F53 %30.26 inEast (80°)3.5 mph
6:00 PM71.6 °F48.2 °F43 %30.23 inSE (140°)1.2 mph
7:00 PM69.8 °F49.6 °F49 %30.23 inCalm
8:00 PM65.5 °F55.0 °F69 %30.23 inSSW (210°)2.3 mph
9:00 PM60.0 °F53.0 °F70 %30.24 inSW (230°)2.3 mph
9:00 PM59.7 °F52.9 °F78 %30.24 inSW (230°)2.3 mph
10:00 PM57.0 °F51.1 °F81 %30.24 inWSW (240°)3.5 mph
11:00 PM55.8 °F49.1 °F78 %30.24 inSW (230°)2.3 mph
Hourly data recorded from CXIB, located miles away from Ingonish Beach, Nova Scotia







STORIES FROM OUR PARTNERS